�N����,����,�~����,�C��,���x,�C��,����,���ϕ���,�ő�u�ԕ���,�ő厞����,���˗�,�I�_���x,�n�����x,�ő啗���N��,DTYPE
"24/01/09","00:10",0.0,-1.0,96.2,1016.4,314.7,1.3,1.7,320.1,0.00,-1.5,6.5,"00:01:44",1
"24/01/09","00:20",0.0,-0.9,96.2,1016.1,298.3,0.8,1.4,311.1,0.00,-1.4,6.5,"00:19:52",1
"24/01/09","00:30",0.0,-1.0,96.4,1016.4,292.2,1.0,1.6,321.0,0.00,-1.5,6.5,"00:20:56",1
"24/01/09","00:40",0.0,-1.0,96.5,1015.9,285.6,1.0,1.2,276.9,0.00,-1.4,6.4,"00:31:52",1
"24/01/09","00:50",0.0,-1.2,96.6,1016.4,314.4,1.5,2.1,316.3,0.00,-1.6,6.4,"00:44:00",1
"24/01/09","01:00",0.0,-1.3,96.8,1016.4,299.0,1.0,1.6,309.3,0.00,-1.7,6.3,"00:58:24",1
"24/01/09","01:10",0.0,-1.2,97.0,1016.4,308.7,1.3,1.8,325.4,0.00,-1.6,6.3,"01:04:56",1
"24/01/09","01:20",0.0,-1.2,97.1,1016.6,312.5,1.3,1.7,318.0,0.00,-1.6,6.0,"01:16:32",1
"24/01/09","01:30",0.0,-1.0,97.2,1016.4,307.7,1.6,2.0,315.4,0.00,-1.3,6.1,"01:26:32",1
"24/01/09","01:40",0.0,-1.0,97.2,1016.1,300.9,1.5,1.9,313.1,0.00,-1.3,6.1,"01:30:16",1
"24/01/09","01:50",0.0,-0.9,97.3,1016.1,280.7,0.3,0.8,279.9,0.00,-1.2,6.0,"01:40:08",1
"24/01/09","02:00",0.0,-0.8,97.4,1016.1,308.3,1.3,2.0,314.0,0.00,-1.1,6.2,"01:55:20",1
"24/01/09","02:10",0.0,-0.9,97.4,1016.4,314.6,1.8,2.2,318.2,0.00,-1.2,6.2,"02:05:28",1
"24/01/09","02:20",0.0,-1.1,97.6,1016.1,300.7,1.2,1.8,316.7,0.00,-1.4,6.0,"02:11:44",1
"24/01/09","02:30",0.0,-1.2,97.7,1016.1,296.8,1.1,1.4,302.0,0.00,-1.5,6.0,"02:25:12",1
"24/01/09","02:40",0.0,-1.1,97.8,1015.4,305.3,1.2,1.8,306.6,0.00,-1.4,6.2,"02:38:16",1
"24/01/09","02:50",0.0,-1.4,97.9,1015.6,305.5,1.3,1.8,311.3,0.00,-1.6,5.7,"02:41:12",1
"24/01/09","03:00",0.0,-1.3,98.0,1015.9,318.9,1.3,2.0,319.0,0.00,-1.5,5.9,"02:56:08",1
"24/01/09","03:10",0.0,-1.3,97.4,1015.6,298.1,1.2,1.8,320.2,0.00,-1.6,5.7,"03:01:28",1
"24/01/09","03:20",0.0,-1.6,98.1,1015.4,271.4,0.5,1.1,288.1,0.00,-1.8,5.9,"03:19:38",1
"24/01/09","03:30",0.0,-1.5,97.6,1015.4,296.4,1.3,1.7,310.9,0.00,-1.8,5.8,"03:27:28",1
"24/01/09","03:40",0.0,-2.0,98.3,1015.4,290.7,1.1,1.6,307.8,0.00,-2.2,5.7,"03:30:16",1
"24/01/09","03:50",0.0,-1.7,97.9,1015.2,307.7,1.2,1.4,313.0,0.00,-1.9,5.8,"03:46:10",1
"24/01/09","04:00",0.0,-1.9,98.4,1014.9,298.2,1.2,2.0,310.7,0.00,-2.1,5.7,"03:57:26",1
"24/01/09","04:10",0.0,-2.0,97.9,1014.9,279.0,0.8,1.1,294.1,0.00,-2.2,5.6,"04:02:04",1
"24/01/09","04:20",0.0,-2.2,98.7,1015.2,278.1,1.0,1.2,282.3,0.00,-2.3,5.7,"04:14:48",1
"24/01/09","04:30",0.0,-1.7,97.9,1015.2,272.9,0.6,1.1,273.0,0.00,-1.9,5.6,"04:20:10",1
"24/01/09","04:40",0.0,-2.2,98.6,1014.7,296.6,1.2,1.6,309.2,0.00,-2.4,5.6,"04:37:10",1
"24/01/09","04:50",0.0,-2.5,98.2,1014.7,289.8,1.2,1.8,306.4,0.00,-2.7,5.3,"04:41:30",1
"24/01/09","05:00",0.0,-2.5,98.2,1014.9,295.3,1.3,1.8,305.3,0.00,-2.7,5.4,"04:50:56",1
"24/01/09","05:10",0.0,-2.6,98.2,1014.7,279.3,0.8,1.4,306.9,0.00,-2.8,5.6,"05:00:40",1
"24/01/09","05:20",0.0,-2.7,98.3,1014.9,289.7,1.1,1.3,292.5,0.00,-2.9,5.4,"05:17:18",1
"24/01/09","05:30",0.0,-2.7,98.4,1014.5,300.7,1.2,1.4,303.5,0.00,-2.9,5.5,"05:22:48",1
"24/01/09","05:40",0.0,-2.4,98.3,1014.9,302.3,1.3,1.8,314.0,0.00,-2.6,5.6,"05:33:12",1
"24/01/09","05:50",0.0,-2.5,98.3,1014.9,282.3,1.1,1.4,306.1,0.00,-2.7,5.2,"05:41:12",1
"24/01/09","06:00",0.0,-2.6,98.3,1014.9,283.3,1.2,1.3,281.5,0.00,-2.8,5.3,"05:52:24",1
"24/01/09","06:10",0.0,-2.4,98.4,1014.7,283.3,0.8,1.4,291.6,0.00,-2.6,5.2,"06:01:28",1
"24/01/09","06:20",0.0,-2.6,98.3,1014.9,291.9,1.2,1.8,306.6,0.00,-2.8,5.2,"06:15:44",1
"24/01/09","06:30",0.0,-2.9,98.5,1014.9,288.9,1.3,1.7,305.7,0.00,-3.1,5.2,"06:29:20",1
"24/01/09","06:40",0.0,-2.9,98.6,1014.9,304.8,1.6,1.8,309.1,0.00,-3.0,5.2,"06:37:04",1
"24/01/09","06:50",0.0,-2.8,98.5,1015.2,287.5,1.2,1.7,312.3,0.00,-3.0,5.2,"06:40:40",1
"24/01/09","07:00",0.0,-2.9,98.5,1015.2,271.1,0.8,1.2,285.5,0.00,-3.1,5.1,"06:57:26",1
"24/01/09","07:10",0.0,-3.1,98.7,1015.4,294.6,1.5,2.4,320.3,0.00,-3.2,5.2,"07:09:18",1
"24/01/09","07:20",0.0,-3.0,98.7,1015.2,294.0,1.5,2.2,316.1,0.00,-3.1,5.0,"07:10:32",1
"24/01/09","07:30",0.0,-2.9,98.7,1015.2,275.9,1.1,1.4,285.0,0.00,-3.0,5.0,"07:22:42",1
"24/01/09","07:40",0.0,-2.6,98.8,1014.9,287.4,1.1,1.6,306.5,0.00,-2.7,4.7,"07:38:32",1
"24/01/09","07:50",0.0,-1.8,98.8,1014.9,298.0,1.1,1.4,314.3,0.00,-1.9,5.0,"07:45:36",1
"24/01/09","08:00",0.0,-1.5,98.7,1015.2,300.0,1.8,2.6,321.1,0.01,-1.6,5.0,"07:59:28",1
"24/01/09","08:10",0.0,-1.1,98.7,1015.4,316.9,1.8,2.5,316.0,0.03,-1.2,5.0,"08:00:32",1
"24/01/09","08:20",0.0,-0.5,98.7,1015.6,262.2,0.8,1.1,301.4,0.05,-0.6,4.9,"08:11:20",1
"24/01/09","08:30",0.0,0.2,98.6,1015.9,254.0,0.6,1.0,290.3,0.10,0.0,4.8,"08:23:52",1
"24/01/09","08:40",0.0,0.8,98.4,1016.4,312.0,1.5,2.4,324.3,0.13,0.6,4.8,"08:39:12",1
"24/01/09","08:50",0.0,1.4,98.3,1016.6,297.6,1.5,1.9,329.7,0.15,1.2,4.7,"08:40:08",1
"24/01/09","09:00",0.0,2.0,98.1,1016.6,281.5,1.0,1.7,284.3,0.18,1.8,4.8,"08:57:52",1
"24/01/09","09:10",0.0,2.1,98.0,1016.6,262.2,0.6,1.0,275.7,0.21,1.9,4.8,"09:09:44",1
"24/01/09","09:20",0.0,2.4,98.0,1017.3,253.4,0.8,1.6,254.0,0.23,2.2,5.0,"09:13:52",1
"24/01/09","09:30",0.0,2.4,97.3,1017.3,233.7,1.0,1.4,221.9,0.26,2.1,4.8,"09:27:46",1
"24/01/09","09:40",0.0,2.8,97.8,1017.1,241.7,1.1,1.9,236.0,0.28,2.5,4.9,"09:39:50",1
"24/01/09","09:50",0.0,3.0,97.3,1017.3,218.7,1.2,2.2,244.6,0.30,2.7,4.8,"09:40:30",1
"24/01/09","10:00",0.0,3.6,96.7,1017.3,229.6,1.2,2.1,167.6,0.32,3.2,4.8,"09:55:04",1
"24/01/09","10:10",0.0,3.9,96.3,1017.5,229.7,1.3,2.7,229.5,0.34,3.4,5.0,"10:03:36",1
"24/01/09","10:20",0.0,4.0,94.7,1017.5,239.7,1.5,2.5,249.6,0.36,3.3,4.9,"10:11:22",1
"24/01/09","10:30",0.0,4.7,93.0,1017.3,229.6,0.8,1.8,228.3,0.38,3.7,5.0,"10:20:24",1
"24/01/09","10:40",0.0,5.1,90.5,1017.5,213.2,0.8,2.2,153.1,0.40,3.7,5.2,"10:34:42",1
"24/01/09","10:50",0.0,5.3,87.3,1017.3,156.1,1.1,2.2,127.0,0.43,3.4,5.1,"10:41:52",1
"24/01/09","11:00",0.0,6.1,83.4,1017.1,252.3,0.8,1.8,255.0,0.43,3.5,5.2,"10:55:12",1
"24/01/09","11:10",0.0,6.6,78.9,1016.8,213.6,1.0,2.0,223.5,0.43,3.2,5.4,"11:06:04",1
"24/01/09","11:20",0.0,6.9,75.6,1017.1,250.5,1.5,3.3,213.0,0.44,2.9,5.4,"11:19:38",1
"24/01/09","11:30",0.0,7.4,74.2,1017.1,208.2,1.0,2.4,233.6,0.45,3.2,5.8,"11:25:38",1
"24/01/09","11:40",0.0,7.6,73.0,1016.8,206.1,1.1,1.9,163.4,0.45,3.1,5.6,"11:34:36",1
"24/01/09","11:50",0.0,7.7,71.6,1016.6,218.2,1.2,2.5,222.0,0.46,2.9,5.7,"11:46:44",1
"24/01/09","12:00",0.0,8.3,70.2,1016.1,208.9,1.1,2.1,165.5,0.47,3.2,5.8,"11:55:52",1
"24/01/09","12:10",0.0,8.4,68.5,1015.9,207.2,1.2,2.4,223.1,0.47,3.0,6.0,"12:06:06",1
"24/01/09","12:20",0.0,8.3,67.5,1015.9,130.7,1.2,2.6,145.9,0.37,2.7,6.0,"12:18:14",1
"24/01/09","12:30",0.0,8.6,67.4,1015.9,205.6,1.3,3.2,201.6,0.35,2.9,6.0,"12:28:14",1
"24/01/09","12:40",0.0,7.9,67.6,1015.6,198.2,1.6,3.7,197.4,0.09,2.3,6.1,"12:38:06",1
"24/01/09","12:50",0.0,7.8,68.6,1014.9,225.1,1.6,4.1,233.1,0.10,2.4,6.3,"12:41:36",1
"24/01/09","13:00",0.0,8.9,67.9,1014.9,181.0,0.8,1.6,143.8,0.35,3.3,6.2,"12:50:08",1
"24/01/09","13:10",0.0,9.3,64.7,1014.7,263.4,1.5,2.6,300.1,0.29,3.0,6.4,"13:06:34",1
"24/01/09","13:20",0.0,9.4,63.0,1014.9,263.9,1.7,4.7,316.5,0.30,2.8,6.5,"13:19:20",1
"24/01/09","13:30",0.0,9.6,61.5,1014.7,258.7,3.0,7.2,243.0,0.36,2.6,6.5,"13:25:36",1
"24/01/09","13:40",0.0,10.4,60.3,1014.5,253.3,2.6,5.0,229.9,0.49,3.1,6.8,"13:34:52",1
"24/01/09","13:50",0.0,9.8,60.9,1014.0,236.0,3.5,6.4,232.3,0.29,2.7,6.5,"13:44:58",1
"24/01/09","14:00",0.0,10.2,59.2,1014.0,252.0,2.7,5.7,241.9,0.34,2.6,6.7,"13:50:38",1
"24/01/09","14:10",0.0,10.3,59.3,1013.8,239.0,2.6,6.0,234.7,0.34,2.8,6.7,"14:03:02",1
"24/01/09","14:20",0.0,10.2,58.5,1014.5,261.5,2.1,3.6,246.0,0.25,2.5,6.8,"14:18:06",1
"24/01/09","14:30",0.0,10.0,58.7,1014.2,274.6,2.1,4.4,341.2,0.20,2.3,6.9,"14:29:06",1
"24/01/09","14:40",0.0,10.0,58.6,1014.2,293.7,2.3,4.8,306.7,0.23,2.3,7.0,"14:38:36",1
"24/01/09","14:50",0.0,10.4,58.4,1014.0,266.8,2.0,4.0,245.4,0.25,2.6,7.2,"14:41:52",1
"24/01/09","15:00",0.0,10.2,59.7,1013.8,233.0,2.3,4.2,239.8,0.23,2.8,7.0,"14:59:38",1
"24/01/09","15:10",0.0,10.1,60.3,1014.0,233.7,3.0,4.7,235.8,0.21,2.8,7.2,"15:04:50",1
"24/01/09","15:20",0.0,10.1,60.5,1014.0,228.5,2.7,4.5,239.2,0.19,2.9,7.4,"15:13:08",1
"24/01/09","15:30",0.0,9.9,60.7,1014.0,237.2,2.6,4.3,235.2,0.16,2.7,7.3,"15:21:28",1
"24/01/09","15:40",0.0,9.7,60.7,1013.5,249.7,3.0,4.8,245.8,0.13,2.5,7.4,"15:35:42",1
"24/01/09","15:50",0.0,9.7,60.9,1013.3,248.7,2.8,4.5,227.3,0.11,2.6,7.4,"15:45:10",1
"24/01/09","16:00",0.0,9.7,60.9,1013.3,243.2,2.5,4.4,239.9,0.09,2.6,7.4,"15:52:52",1
"24/01/09","16:10",0.0,9.7,62.5,1013.8,243.0,2.0,3.7,240.0,0.07,2.9,7.3,"16:07:12",1
"24/01/09","16:20",0.0,9.2,64.7,1013.8,229.4,2.1,3.7,237.4,0.05,2.9,7.5,"16:19:34",1
"24/01/09","16:30",0.0,8.6,67.1,1013.5,218.6,2.3,4.5,215.4,0.02,2.9,7.4,"16:29:04",1
"24/01/09","16:40",0.0,8.3,68.1,1013.3,216.5,2.0,4.1,237.9,0.01,2.8,7.6,"16:31:36",1
"24/01/09","16:50",0.0,8.0,69.3,1013.3,224.2,1.5,3.1,181.6,0.00,2.8,7.3,"16:48:40",1
"24/01/09","17:00",0.0,7.8,70.2,1013.0,229.5,1.3,2.4,240.9,0.00,2.8,7.4,"16:50:32",1
"24/01/09","17:10",0.0,7.5,70.9,1013.3,269.4,2.0,3.6,254.3,0.00,2.6,7.4,"17:01:44",1
"24/01/09","17:20",0.0,6.9,72.4,1013.5,326.4,2.2,2.9,321.6,0.00,2.3,7.4,"17:11:20",1
"24/01/09","17:30",0.0,6.1,73.8,1013.3,308.5,1.7,2.0,321.8,0.00,1.8,7.4,"17:22:16",1
"24/01/09","17:40",0.0,5.6,75.6,1013.3,308.9,2.3,3.2,318.8,0.00,1.7,7.6,"17:34:36",1
"24/01/09","17:50",0.0,5.2,76.9,1013.3,292.1,1.7,2.0,274.5,0.00,1.5,7.5,"17:43:20",1
"24/01/09","18:00",0.0,5.0,78.7,1013.3,305.3,2.1,3.4,320.3,0.00,1.7,7.3,"17:55:06",1
"24/01/09","18:10",0.0,4.7,80.2,1013.3,308.8,2.2,3.2,313.8,0.00,1.6,7.2,"18:08:46",1
"24/01/09","18:20",0.0,4.5,81.7,1013.3,314.3,2.3,3.7,326.3,0.00,1.7,7.5,"18:10:32",1
"24/01/09","18:30",0.0,4.3,83.3,1013.3,296.4,2.0,3.5,338.5,0.00,1.8,7.2,"18:22:58",1
"24/01/09","18:40",0.0,4.2,84.7,1013.3,302.1,2.0,3.1,326.7,0.00,1.9,7.3,"18:37:10",1
"24/01/09","18:50",0.0,4.2,85.7,1013.0,303.2,2.0,2.9,330.2,0.00,2.1,7.0,"18:48:54",1
"24/01/09","19:00",0.0,4.1,86.5,1013.5,302.0,2.1,3.7,320.5,0.00,2.1,7.1,"18:56:22",1
"24/01/09","19:10",0.0,4.2,87.0,1013.5,290.7,2.0,3.9,303.7,0.00,2.3,7.1,"19:00:42",1
"24/01/09","19:20",0.0,4.2,87.4,1013.5,298.4,2.2,3.1,312.0,0.00,2.3,7.1,"19:16:24",1
"24/01/09","19:30",0.0,4.1,87.7,1013.5,304.5,1.8,2.6,338.5,0.00,2.3,7.1,"19:21:24",1
"24/01/09","19:40",0.0,4.0,88.1,1013.3,311.8,2.2,3.2,313.6,0.00,2.3,7.0,"19:34:00",1
"24/01/09","19:50",0.0,4.0,88.3,1013.3,293.0,1.8,2.9,316.8,0.00,2.3,7.0,"19:40:16",1
"24/01/09","20:00",0.0,4.0,88.5,1013.3,290.4,1.8,2.4,295.7,0.00,2.3,6.6,"19:51:56",1
"24/01/09","20:10",0.0,3.9,88.7,1013.5,308.8,1.6,2.5,321.8,0.00,2.2,7.0,"20:01:18",1
"24/01/09","20:20",0.0,3.7,88.8,1013.3,290.3,1.5,2.5,317.4,0.00,2.1,7.0,"20:10:52",1
"24/01/09","20:30",0.0,3.4,89.1,1013.0,303.1,1.2,1.9,315.3,0.00,1.8,6.8,"20:27:48",1
"24/01/09","20:40",0.0,3.2,89.4,1012.8,296.6,0.8,1.8,319.8,0.00,1.7,7.0,"20:37:40",1
"24/01/09","20:50",0.0,2.6,89.7,1012.8,312.4,1.7,2.4,325.4,0.00,1.1,6.8,"20:43:42",1
"24/01/09","21:00",0.0,2.6,90.2,1012.8,296.3,1.5,2.0,316.2,0.00,1.2,6.8,"20:52:02",1
"24/01/09","21:10",0.0,2.6,90.5,1013.0,288.6,1.2,1.6,303.9,0.00,1.2,6.8,"21:00:56",1
"24/01/09","21:20",0.0,2.1,90.8,1012.6,319.3,1.7,2.6,334.5,0.00,0.8,6.8,"21:19:54",1
"24/01/09","21:30",0.0,1.5,91.5,1012.6,318.9,1.7,2.4,337.2,0.00,0.3,6.7,"21:20:08",1
"24/01/09","21:40",0.0,1.7,91.9,1012.3,291.2,1.5,2.0,298.2,0.00,0.6,6.8,"21:39:20",1
"24/01/09","21:50",0.0,2.2,92.3,1012.3,298.3,1.7,2.2,316.7,0.00,1.1,6.7,"21:45:36",1
"24/01/09","22:00",0.0,2.3,92.5,1012.3,293.8,1.6,2.1,320.3,0.00,1.3,6.5,"21:56:32",1
"24/01/09","22:10",0.0,1.8,92.8,1012.1,319.8,1.7,2.4,315.8,0.00,0.8,6.7,"22:07:44",1
"24/01/09","22:20",0.0,1.2,93.3,1012.1,313.9,1.7,2.1,322.6,0.00,0.3,6.5,"22:10:56",1
"24/01/09","22:30",0.0,1.6,93.6,1012.3,300.6,1.7,2.5,322.3,0.00,0.7,6.5,"22:24:56",1
"24/01/09","22:40",0.0,1.7,93.8,1012.1,323.0,1.6,2.4,316.0,0.00,0.9,6.4,"22:32:00",1
"24/01/09","22:50",0.0,1.0,94.0,1011.9,316.5,1.8,2.5,320.1,0.00,0.2,6.2,"22:46:40",1
"24/01/09","23:00",0.0,0.6,94.5,1011.9,297.6,0.7,2.0,325.5,0.00,-0.1,6.6,"22:59:12",1
"24/01/09","23:10",0.0,0.6,94.6,1011.6,325.5,1.8,2.5,318.8,0.00,-0.1,6.3,"23:06:48",1
"24/01/09","23:20",0.0,0.4,95.0,1011.4,319.7,1.7,2.1,323.3,0.00,-0.3,6.1,"23:16:32",1
"24/01/09","23:30",0.0,0.9,95.3,1011.2,295.1,1.7,2.1,312.1,0.00,0.3,6.2,"23:26:56",1
"24/01/09","23:40",0.0,1.4,95.2,1011.4,303.3,1.6,2.1,322.1,0.00,0.8,5.9,"23:32:40",1
"24/01/09","23:50",0.0,1.2,95.4,1011.2,311.6,1.5,2.5,322.7,0.00,0.6,6.3,"23:44:40",1
"24/01/09","24:00",0.0,1.0,95.6,1010.9,293.7,1.2,2.1,321.5,0.00,0.4,5.9,"23:58:56",1
